Temp
6 6 6 6 6 7 7 7 8 8 9 9 8 8 9 10 10 10 10 7 8 9 10 10 11 11 12 12 11 11 7 8 10 11 11 12 12 13 12 13 13 14 14 14 14
6 7 7 6 7 7 7 7 8 9 9 9 9 9 9 9 11 10 7 8 9 10 11 11 11 12 11 11 11 9 7 10 10 10 10 10 10 11 12 11 13 13 13 13 14
7 8 7 7 7 7 7 8 9 10 10 9 9 9 10 10 11 8 8 9 9 10 11 11 11 11 10 10 9 8 8 9 10 11 10 10 10 11 10 10 12 13 13 13 13
7 7 7 7 7 7 8 9 9 9 8 8 9 10 11 11 7 8 8 9 9 9 11 11 11 10 8 8 9 9 9 9 10 10 10 9 10 10 10 11 13 12 12 12 12
8 8 8 8 8 8 8 9 9 9 9 9 10 10 10 10 7 8 9 9 9 10 10 10 10 9 8 7 9 8 9 9 10 10 10 10 9 9 10 12 12 12 12 12 12
8 9 9 9 9 9 9 9 9 9 9 10 10 10 11 7 8 8 8 9 9 9 9 10 8 8 8 8 8 8 8 8 9 10 9 9 9 9 11 12 11 11 12 12 12
9 9 9 9 9 9 9 9 9 9 10 10 10 10 10 7 8 8 8 8 8 9 8 8 8 9 8 7 8 8 7 6 8 9 8 9 7 7 11 11 10 11 12 12 12
9 9 9 10 10 10 10 10 10 10 10 10 11 11 7 8 8 8 9 8 8 9 8 8 8 8 8 8 7 7 5 5 8 8 9 9 7 8 11 10 10 11 11 11 12
9 10 10 10 10 10 10 10 10 10 10 10 11 11 8 9 9 8 8 9 9 9 9 9 9 8 8 6 4 4 5 5 5 8 8 7 7 8 10 9 9 10 11 11 12
10 10 10 10 10 11 11 11 10 10 10 11 11 10 9 9 8 8 8 8 8 9 9 9 8 5 4 4 3 5 4 4 5 6 7 6 6 8 9 9 8 9 10 11 11
10 10 10 10 10 11 11 11 11 11 10 8 8 8 8 8 9 9 9 9 9 8 6 7 5 5 6 5 6 5 4 4 5 6 5 5 5 7 8 8 8 9 10 11 12
11 11 11 11 11 10 10 11 9 9 9 9 9 9 9 9 9 9 9 8 7 6 6 5 4 6 6 6 6 5 4 4 5 6 6 5 6 7 7 7 8 8 9 11 11
11 11 11 11 11 10 9 9 8 8 8 9 9 9 9 9 8 9 8 8 7 6 6 4 7 7 7 7 6 5 4 4 4 4 4 3 4 4 6 6 7 8 9 10 11
11 11 11 11 10 10 9 8 8 8 2 8 9 9 9 9 8 9 8 8 7 6 5 4 6 7 7 6 6 5 6 5 5 5 5 5 4 3 4 5 6 6 7 9 11
11 11 11 10 9 9 8 8 8 8 6 9 9 9 9 8 9 9 8 7 7 7 5 8 7 7 6 6 6 5 6 5 4 3 5 4 3 3 4 6 7 5 6 8 10
11 12 11 10 9 9 8 8 7 4 7 8 9 8 8 8 8 9 8 8 7 6 5 4 6 6 6 7 6 6 5 4 3 4 4 4 4 4 5 8 6 6 8 8 9
11 11 11 10 9 8 8 7 4 6 8 9 7 8 7 7 8 8 7 5 5 5 4 4 5 6 7 6 6 5 3 1 3 0 3 4 3 4 6 6 6 6 8 9 9
11 11 10 10 10 9 8 5 7 10 9 8 7 7 8 7 8 7 7 5 5 4 1 2 5 7 7 7 6 5 5 1 3 1 1 3 4 6 6 6 7 8 9 10 9
11 11 10 10 10 9 8 3 7 8 8 7 7 8 8 8 8 6 7 6 6 5 6 2 5 5 6 7 6 6 3 5 4 1 3 3 3 5 6 7 7 7 8 9 10
11 11 10 10 10 9 5 7 7 7 8 7 9 8 8 7 7 6 6 7 6 5 5 5 2 5 5 6 5 6 5 3 1 1 4 3 2 4 8 8 6 6 7 9 9
11 11 10 10 10 10 4 5 7 8 8 8 7 7 7 7 7 7 7 7 6 4 5 3 3 5 5 5 4 4 4 3 1 2 0 1 4 3 6 8 6 4 8 10 10
10 8 10 10 9 4 3 7 8 8 8 7 7 6 7 7 7 7 7 6 6 5 5 3 1 1 4 4 4 4 4 3 2 2 1 1 2 5 4 4 4 6 9 10 10
9 9 10 10 4 4 6 7 8 8 7 7 7 6 6 7 7 6 7 7 6 5 4 3 1 0 6 4 4 4 4 3 -0 -1 1 1 3 5 3 4 7 6 9 10 10
8 4 9 9 7 6 6 7 8 8 7 7 7 7 6 6 5 6 6 6 6 6 5 5 1 2 5 6 4 4 3 2 2 -2 -0 3 6 9 8 6 6 7 8 8 8
7 5 5 4 5 6 6 6 7 8 7 7 7 6 6 6 6 4 5 5 4 5 3 3 0 1 3 3 3 4 4 4 2 4 3 5 3 7 7 6 7 7 7 7 9
7 7 6 5 6 5 6 6 6 7 8 8 6 8 6 6 8 9 6 6 6 2 2 0 1 -3 0 4 3 3 4 2 3 4 4 5 5 7 7 6 6 9 9 9 10
6 6 5 6 5 5 6 7 8 8 9 9 7 7 6 6 8 8 8 8 7 4 1 1 -1 -1 3 2 3 5 5 4 3 2 4 3 5 5 5 4 6 8 9 9 12
Height
1477 1474 1475 1478 1480 1483 1486 1488 1496 1499 1501 1504 1506 1507 1509 1510 1511 1512 1512 1519 1518 1518 1517 1517 1517 1517 1518 1519 1520 1521 1530 1532 1524 1522 1519 1515 1515 1513 1512 1511 1511 1510 1510 1511 1513
1482 1479 1480 1481 1483 1488 1492 1496 1500 1502 1504 1507 1509 1511 1511 1512 1514 1511 1521 1520 1519 1519 1518 1518 1516 1517 1518 1521 1522 1523 1531 1524 1521 1520 1518 1516 1516 1514 1512 1510 1508 1508 1510 1510 1511
1492 1489 1490 1489 1492 1496 1499 1502 1504 1506 1509 1510 1512 1512 1513 1513 1514 1521 1522 1521 1520 1520 1519 1518 1517 1518 1520 1522 1523 1524 1526 1522 1520 1519 1518 1516 1514 1513 1511 1509 1506 1506 1508 1509 1509
1502 1500 1499 1502 1504 1504 1505 1507 1509 1512 1514 1515 1515 1515 1515 1515 1525 1524 1523 1523 1522 1521 1520 1519 1518 1519 1522 1523 1523 1524 1521 1522 1520 1518 1517 1516 1514 1511 1509 1505 1504 1504 1504 1504 1504
1511 1509 1507 1507 1509 1511 1513 1514 1516 1517 1518 1517 1516 1515 1516 1516 1525 1526 1525 1524 1524 1523 1520 1519 1519 1521 1524 1524 1523 1523 1522 1521 1520 1518 1515 1513 1510 1508 1501 1500 1501 1500 1499 1498 1498
1517 1516 1516 1516 1516 1516 1517 1518 1519 1519 1519 1518 1517 1517 1517 1520 1527 1528 1527 1527 1525 1523 1522 1521 1522 1523 1524 1525 1525 1523 1521 1518 1516 1512 1511 1509 1502 1504 1496 1495 1494 1494 1493 1493 1493
1523 1522 1522 1522 1522 1522 1523 1523 1522 1522 1521 1520 1520 1520 1518 1528 1529 1529 1528 1527 1526 1525 1523 1523 1523 1524 1524 1524 1523 1521 1521 1517 1511 1510 1509 1504 1502 1498 1491 1490 1490 1488 1488 1487 1487
1528 1527 1527 1527 1527 1526 1526 1525 1524 1523 1523 1522 1522 1521 1526 1530 1530 1529 1528 1527 1526 1525 1525 1524 1523 1524 1524 1525 1523 1523 1524 1525 1509 1507 1503 1504 1500 1494 1490 1487 1484 1484 1483 1483 1482
1533 1531 1531 1530 1530 1529 1528 1527 1526 1525 1525 1524 1524 1523 1530 1530 1530 1529 1528 1527 1526 1525 1524 1524 1524 1526 1526 1529 1532 1529 1528 1523 1514 1503 1502 1500 1494 1486 1486 1483 1481 1480 1479 1478 1478
1537 1535 1534 1533 1532 1531 1530 1528 1527 1526 1524 1524 1524 1527 1531 1532 1530 1529 1528 1526 1525 1524 1525 1527 1528 1531 1532 1534 1545 1531 1529 1521 1516 1502 1499 1497 1489 1481 1475 1477 1475 1473 1473 1473 1473
1539 1538 1536 1534 1531 1530 1528 1526 1529 1529 1526 1529 1531 1530 1531 1531 1530 1529 1527 1525 1526 1528 1531 1530 1534 1535 1529 1528 1526 1524 1525 1522 1508 1501 1500 1493 1483 1472 1468 1470 1467 1464 1465 1466 1467
1540 1538 1536 1535 1533 1530 1528 1526 1528 1531 1531 1530 1530 1530 1531 1531 1529 1529 1530 1529 1528 1531 1530 1535 1535 1526 1524 1523 1523 1522 1524 1515 1506 1499 1498 1487 1471 1462 1458 1458 1455 1454 1455 1458 1462
1540 1538 1536 1534 1532 1530 1528 1528 1528 1528 1530 1532 1532 1532 1533 1533 1532 1531 1530 1529 1529 1530 1529 1533 1522 1521 1520 1519 1520 1519 1520 1514 1511 1501 1497 1492 1471 1462 1451 1450 1449 1448 1450 1454 1457
1540 1537 1535 1533 1534 1531 1530 1529 1528 1529 1544 1538 1535 1535 1534 1532 1532 1530 1530 1532 1529 1529 1528 1527 1519 1517 1517 1517 1517 1518 1507 1508 1507 1506 1500 1496 1494 1470 1457 1450 1447 1445 1444 1447 1451
1539 1536 1534 1532 1532 1531 1532 1530 1530 1531 1562 1539 1535 1534 1533 1534 1533 1531 1530 1529 1529 1528 1532 1520 1519 1518 1517 1513 1513 1511 1503 1505 1504 1508 1503 1502 1505 1473 1459 1449 1444 1443 1444 1443 1447
1538 1536 1533 1533 1532 1531 1530 1529 1531 1545 1559 1538 1535 1534 1533 1532 1532 1530 1530 1530 1528 1528 1528 1524 1519 1519 1516 1512 1512 1508 1506 1503 1507 1504 1504 1501 1503 1478 1462 1449 1445 1441 1442 1444 1446
1538 1535 1533 1533 1533 1531 1530 1531 1543 1553 1543 1540 1539 1536 1537 1534 1532 1531 1532 1533 1536 1538 1536 1526 1519 1516 1515 1515 1512 1514 1516 1528 1519 1531 1513 1498 1501 1473 1452 1449 1447 1443 1441 1442 1444
1538 1535 1534 1533 1532 1531 1530 1532 1550 1543 1543 1541 1539 1537 1536 1535 1533 1533 1533 1537 1535 1537 1547 1548 1529 1516 1515 1516 1517 1517 1520 1545 1541 1542 1524 1499 1496 1463 1447 1446 1443 1442 1442 1443 1443
1538 1536 1535 1534 1532 1531 1531 1552 1552 1547 1544 1543 1538 1538 1537 1535 1536 1534 1533 1536 1535 1536 1538 1548 1528 1516 1515 1515 1517 1518 1528 1521 1527 1534 1521 1503 1485 1455 1444 1442 1441 1442 1442 1442 1442
1538 1537 1536 1535 1533 1531 1532 1545 1545 1543 1543 1543 1541 1540 1540 1540 1539 1539 1536 1532 1533 1535 1536 1539 1544 1518 1515 1514 1517 1517 1521 1533 1539 1545 1519 1503 1497 1478 1447 1443 1442 1441 1441 1440 1440
1538 1538 1538 1536 1534 1533 1548 1549 1543 1541 1540 1543 1543 1543 1542 1540 1538 1538 1535 1533 1532 1535 1536 1538 1545 1523 1518 1517 1517 1520 1523 1527 1535 1532 1547 1535 1483 1455 1447 1442 1444 1440 1437 1436 1437
1539 1539 1539 1537 1537 1542 1549 1545 1543 1541 1542 1542 1543 1543 1542 1541 1540 1537 1535 1531 1529 1530 1534 1536 1543 1545 1517 1515 1516 1516 1516 1519 1532 1534 1535 1536 1495 1447 1447 1445 1443 1438 1435 1435 1434
1543 1541 1540 1538 1549 1549 1545 1543 1542 1541 1541 1542 1541 1541 1541 1541 1540 1536 1532 1528 1527 1528 1531 1533 1542 1550 1511 1516 1515 1515 1513 1516 1526 1529 1527 1532 1483 1445 1445 1443 1439 1437 1434 1431 1431
1547 1546 1542 1541 1545 1547 1548 1544 1542 1540 1539 1539 1538 1539 1540 1539 1538 1535 1532 1527 1528 1528 1528 1529 1536 1530 1523 1506 1511 1512 1510 1513 1515 1538 1520 1492 1460 1438 1443 1443 1437 1433 1431 1427 1424
1551 1550 1550 1550 1547 1549 1549 1545 1543 1540 1539 1538 1538 1537 1538 1538 1535 1537 1532 1528 1527 1527 1528 1528 1534 1527 1515 1510 1507 1500 1498 1502 1505 1496 1502 1465 1472 1442 1440 1440 1434 1430 1425 1422 1418
1554 1553 1552 1548 1547 1547 1547 1545 1542 1539 1538 1535 1537 1533 1536 1536 1528 1525 1527 1527 1522 1526 1528 1529 1527 1531 1513 1496 1498 1493 1480 1486 1486 1483 1481 1470 1461 1440 1434 1434 1430 1426 1423 1418 1413
1553 1552 1552 1548 1546 1547 1543 1540 1538 1538 1534 1532 1532 1532 1532 1527 1522 1519 1518 1518 1517 1519 1524 1527 1529 1529 1506 1499 1493 1477 1457 1463 1467 1466 1464 1471 1441 1434 1431 1430 1426 1421 1418 1414 1410
Wind_Speed
20 17 19 20 19 18 21 18 22 18 16 15 17 18 16 15 13 11 16 12 11 5 3 3 2 3 4 5 5 2 4 1 3 1 5 5 3 2 3 5 4 5 3 5 16
23 27 31 24 24 27 22 25 19 17 17 19 18 17 18 16 12 21 13 10 8 6 2 4 7 6 5 4 4 4 2 3 1 2 3 6 3 6 5 3 5 8 9 6 7
37 33 30 36 25 22 25 24 23 21 19 19 19 18 17 13 11 14 12 9 7 6 6 7 7 8 6 5 5 2 3 2 3 5 5 5 7 4 2 5 12 6 4 6 10
35 32 33 32 28 24 28 27 24 21 18 15 13 8 4 2 5 8 9 8 8 7 4 8 6 4 3 2 2 2 4 4 5 4 6 5 8 7 12 15 18 21 21 20 19
31 28 27 28 28 26 25 22 19 16 12 8 5 4 5 15 9 8 7 6 7 7 9 7 12 4 2 3 6 1 4 9 12 19 17 16 17 12 19 27 28 27 26 25 24
28 28 27 26 25 24 22 20 17 16 14 11 10 8 9 12 9 8 8 6 8 10 12 11 7 4 2 1 0 5 11 16 15 20 15 11 17 9 19 22 24 22 22 23 20
24 25 23 22 22 21 17 15 13 12 11 10 13 17 21 11 6 6 6 7 8 9 10 10 9 4 2 5 5 6 6 7 7 4 8 6 6 7 24 21 21 18 15 15 19
22 22 21 18 16 14 12 11 11 11 11 8 8 9 9 7 6 6 7 5 4 4 5 6 8 4 3 6 5 3 2 3 4 10 6 3 11 8 20 14 18 11 14 15 13
18 18 17 16 14 12 10 10 7 6 8 10 8 6 5 6 7 8 8 7 4 6 5 4 6 5 4 2 4 4 4 6 8 6 6 7 7 14 27 26 22 28 29 24 18
11 13 15 17 17 14 7 5 11 10 2 3 9 6 4 2 5 7 9 10 6 9 6 7 4 3 3 3 2 5 6 6 10 6 7 14 20 19 30 22 24 30 31 25 19
8 6 6 12 18 17 15 1 2 3 17 10 6 5 3 5 4 6 10 8 7 5 2 4 3 5 6 4 4 4 5 10 14 13 6 11 16 20 26 18 23 30 32 29 23
8 6 7 13 18 16 13 5 4 3 5 7 7 6 4 5 3 5 7 3 2 1 2 4 5 4 5 5 4 5 8 15 11 7 5 14 23 23 21 16 24 27 32 31 26
10 10 11 13 14 15 13 11 4 4 4 4 5 4 4 4 3 3 2 2 2 2 3 5 4 4 4 3 5 5 6 6 9 7 5 9 11 6 5 9 22 25 27 27 28
12 12 9 9 6 12 9 8 4 4 5 5 3 2 2 3 3 3 3 2 2 3 3 5 3 3 3 5 4 5 4 7 7 9 8 6 7 7 7 8 4 10 16 23 21
17 14 10 5 6 7 7 4 2 1 5 2 3 3 4 2 6 1 3 2 3 3 4 4 2 2 4 4 5 9 2 7 5 4 4 2 2 9 5 6 5 4 10 14 15
19 15 11 7 6 8 6 2 2 6 3 4 3 4 4 1 2 3 2 2 3 2 1 6 5 3 4 3 4 7 6 2 3 1 2 3 2 6 4 4 6 3 10 13 14
20 15 9 7 8 8 4 1 5 6 2 5 3 4 3 3 4 2 3 5 3 6 6 6 2 3 2 4 3 6 5 4 6 4 5 1 1 10 8 7 6 8 17 18 15
21 13 7 9 10 8 5 4 9 2 2 3 3 4 2 4 1 4 2 4 1 3 2 4 7 1 1 2 3 3 2 4 4 3 6 3 5 6 5 13 17 15 16 13 14
17 9 7 11 11 9 2 6 3 2 2 5 4 3 4 2 1 5 1 1 2 2 2 4 6 3 2 1 4 2 2 1 3 2 4 4 7 10 4 5 3 5 8 13 14
14 5 8 12 12 8 4 3 3 3 1 1 2 2 3 4 5 6 3 1 2 2 1 1 6 2 4 1 3 2 0 3 3 6 6 5 6 5 6 6 5 7 15 18 15
11 3 9 13 10 4 3 3 3 3 3 1 1 3 3 3 1 2 3 3 2 3 2 3 2 5 2 4 5 2 1 3 3 3 3 5 8 7 7 4 7 8 18 18 17
9 3 10 12 4 4 2 1 3 2 1 1 1 2 2 2 3 3 4 6 6 8 4 4 4 5 8 2 1 2 4 5 4 4 2 3 8 4 7 8 8 17 20 20 19
10 5 7 11 3 3 5 3 3 2 3 2 3 5 3 3 3 4 3 2 10 7 6 6 1 5 8 4 1 4 4 3 4 2 6 4 7 2 6 7 14 15 21 22 24
8 3 4 6 5 3 4 3 4 3 3 4 3 3 2 3 4 4 3 2 6 5 5 8 3 7 7 8 2 7 6 6 5 3 3 11 16 22 15 11 16 28 34 33 29
6 3 3 4 3 3 2 2 3 3 3 4 2 6 6 3 2 4 4 4 3 4 4 3 6 6 12 15 17 22 20 15 15 14 8 4 9 21 20 15 20 30 33 28 26
6 4 3 5 6 1 1 3 3 4 3 3 4 1 6 6 7 9 5 4 7 2 5 1 4 2 7 16 8 14 17 18 19 22 21 23 28 27 36 23 14 23 24 29 30
5 6 4 5 2 1 4 5 3 1 8 10 9 2 5 15 24 28 23 18 12 8 8 5 2 3 6 5 11 7 7 9 6 6 20 10 14 6 9 7 16 26 28 30 29
Wind_Direction
62 73 88 100 114 131 141 127 120 124 126 126 121 118 114 111 115 121 62 42 27 48 59 111 91 101 98 74 52 55 51 305 272 264 298 332 321 255 270 261 221 205 202 164 188
72 71 81 95 117 129 136 105 111 110 115 120 118 115 110 114 126 82 53 39 41 45 75 91 64 69 68 41 24 62 116 242 278 277 274 306 331 319 316 297 257 238 214 198 213
78 67 87 96 105 116 110 111 109 107 114 123 124 125 126 121 75 45 51 44 31 25 39 48 55 63 68 31 16 40 205 317 292 317 313 298 295 269 271 282 251 254 249 250 249
81 75 73 78 90 100 106 100 96 98 110 118 115 100 91 83 84 47 48 42 33 20 32 56 56 59 76 37 356 334 242 278 283 292 307 289 292 285 252 250 273 282 290 285 274
68 70 78 85 93 98 95 90 84 88 97 99 106 95 96 88 83 52 36 51 41 25 48 54 53 60 75 346 341 237 325 314 294 296 287 277 257 250 261 273 276 281 281 279 283
66 65 77 85 88 93 94 91 88 92 85 84 96 91 92 76 84 66 57 57 47 42 44 52 51 40 82 8 351 304 295 293 295 286 286 257 261 241 261 268 271 273 274 283 281
62 66 77 77 82 84 82 81 80 74 69 79 84 83 84 81 73 47 37 36 36 48 49 40 29 24 350 333 320 295 319 323 282 291 300 293 288 233 271 272 272 274 279 281 267
57 60 63 65 68 70 71 65 60 63 58 54 70 86 81 71 48 26 27 29 14 39 27 17 11 31 12 323 335 331 63 359 261 304 269 184 274 283 296 292 255 261 293 304 278
59 55 57 56 51 45 47 49 44 57 54 44 54 85 80 62 49 38 29 25 50 27 8 349 3 15 350 6 331 353 281 273 301 210 283 221 283 269 278 281 270 281 290 290 278
49 51 72 67 51 34 10 80 39 43 0 61 46 70 69 62 38 39 21 6 15 354 14 13 6 27 7 80 273 280 292 267 264 278 280 276 276 269 271 268 267 277 281 283 272
18 47 45 21 8 10 11 7 16 49 58 73 68 91 90 13 30 18 4 2 0 11 26 11 24 241 236 216 244 265 261 267 276 280 286 267 273 271 272 251 254 262 266 265 264
15 350 325 338 347 355 359 80 75 109 85 57 52 49 29 2 353 8 351 17 41 304 11 12 234 244 262 273 261 277 282 282 290 281 281 283 279 273 267 245 240 245 251 253 258
356 342 329 329 341 356 22 41 60 115 77 27 12 10 358 346 313 306 311 327 171 230 205 187 233 289 231 281 301 259 242 272 272 315 259 326 292 326 296 255 252 251 254 257 253
351 341 327 330 354 357 18 20 65 138 74 311 8 15 335 306 277 272 284 302 248 258 263 231 261 228 255 259 199 292 227 260 284 332 320 42 297 310 321 308 266 263 235 241 238
354 352 351 349 344 6 353 3 104 121 53 280 315 317 306 267 314 319 270 273 262 272 75 275 285 287 271 232 163 246 299 262 271 266 314 24 285 270 323 321 305 263 236 211 208
359 353 355 2 7 4 3 22 132 44 282 354 315 354 1 296 292 303 286 277 283 287 247 254 291 255 235 288 211 307 309 338 69 325 277 240 182 285 284 256 300 279 226 215 212
356 357 2 21 5 5 12 123 37 88 304 325 338 13 343 296 317 355 359 4 33 10 8 324 257 280 252 317 358 6 10 338 355 9 234 10 210 249 260 257 256 244 225 222 224
354 2 29 24 8 3 346 53 65 246 305 332 334 321 310 6 309 327 359 348 96 79 20 27 333 136 48 231 306 346 58 127 289 316 289 304 230 259 226 302 288 264 258 236 238
357 16 40 9 358 349 325 48 194 209 281 336 324 353 323 354 320 14 344 233 227 168 57 14 276 311 227 291 113 332 9 157 277 245 289 268 286 293 288 296 312 267 240 241 242
1 33 24 359 353 349 62 162 194 213 271 44 335 65 315 316 2 15 328 226 148 152 83 192 297 217 285 30 56 160 136 18 12 345 306 295 285 242 309 298 266 256 257 262 262
6 29 5 358 355 16 96 236 271 234 187 154 259 295 269 288 262 286 270 268 156 136 87 135 127 288 326 185 184 124 208 84 141 171 204 312 276 222 235 270 295 274 265 267 276
1 37 357 358 32 40 69 279 318 286 246 209 175 237 246 306 281 269 236 219 176 157 161 198 162 278 247 132 77 193 205 164 126 258 196 167 272 282 270 285 287 286 284 283 285
349 336 1 5 79 354 320 299 265 228 232 189 239 205 180 248 294 219 251 244 181 165 173 177 229 327 337 36 58 233 202 146 100 60 207 159 260 301 310 305 290 280 290 291 290
348 1 9 43 72 95 14 292 304 272 256 213 230 179 166 251 223 288 274 248 208 215 185 176 193 196 223 236 163 253 202 192 158 155 208 232 278 275 288 289 292 291 293 294 290
353 19 8 323 8 359 311 296 292 294 225 228 250 227 184 268 256 235 232 283 214 229 163 173 230 215 252 271 267 266 265 236 212 219 209 265 233 277 289 294 294 297 301 303 301
332 347 343 286 287 295 186 265 233 287 223 240 226 260 195 230 218 277 224 204 240 110 172 220 271 112 275 252 252 262 253 230 230 235 247 258 275 276 276 289 293 306 305 305 302
299 290 286 268 243 258 219 224 247 5 289 251 238 246 223 241 256 264 268 264 249 179 191 182 227 357 270 354 310 280 251 177 188 207 217 223 235 279 283 275 287 308 310 304 307